Regional Weather Roundup
Issued by NWS

Home | Current Version | Previous Version | Graphics & Text | Print | Product List | Glossary On
Versions: 1 2 3 4 5 6 7 8 9 10 11 12 13 14 15 16 17 18 19 20 21 22 23 24 25 26 27 28 29 30 31 32 33 34 35 36 37 38 39 40 41 42 43 44 45 46 47 48 49 50
000
ASUS43 KOAX 231002
RWRNE

WEATHER ROUNDUP FOR NEBRASKA
NATIONAL WEATHER SERVICE OMAHA NE
500 AM CDT WED AUG 23 2017

NOTES: SATELLITE DATA IS BEING USED TO AUGMENT CLOUD COVER ABOVE
       12000 FEET.
       "FAIR" INDICATES FEW OR NO CLOUDS BELOW 12,000 FEET WITH NO
       SIGNIFICANT WEATHER AND/OR OBSTRUCTIONS TO VISIBILITY.


NEZ001>004-019>022-054>056-231100-
NEBRASKA PANHANDLE

CITY           SKY/WX    TMP DP  RH WIND       PRES   REMARKS
SCOTTSBLUFF    CLEAR     58  53  84 E9        30.12F
ALLIANCE       CLEAR     55  49  80 S9        30.13F
CHADRON        CLEAR     66  53  63 S8        30.07F
GORDON         FAIR      62  49  61 CALM      30.12F
KIMBALL        CLEAR     56  55  95 SW3       30.17F
SIDNEY         CLEAR     60  53  77 S14       30.16F
$$

NEZ057>060-069>072-079>082-231100-
SOUTHWEST NEBRASKA

CITY           SKY/WX    TMP DP  RH WIND       PRES   REMARKS
NORTH PLATTE   CLEAR     60  52  74 S9        30.17F
IMPERIAL       CLEAR     55  49  80 S8        30.19F
LEXINGTON      MOCLDY    57  52  82 SE3       30.17F
MCCOOK         CLEAR     58  50  75 S6        30.19S
OGALLALA       CLEAR     59  51  75 CALM      30.17F
$$

NEZ005>010-023>029-035>040-094-231100-
NORTH CENTRAL NEBRASKA

CITY           SKY/WX    TMP DP  RH WIND       PRES   REMARKS
VALENTINE      CLEAR     61  51  70 SW6       30.11F
AINSWORTH      CLEAR     58  54  86 S8        30.12F
BROKEN BOW     CLEAR     59  52  77 S6        30.16F
O`NEILL        CLEAR     56  53  90 S7        30.15F
ORD            CLEAR     56  51  84 E3        30.14F
THEDFORD       CLEAR     62  52  70 S8        30.15F
$$

NEZ041-046>049-061>064-073>077-083>087-231100-
SOUTH CENTRAL NEBRASKA

CITY           SKY/WX    TMP DP  RH WIND       PRES   REMARKS
GRAND ISLAND   CLEAR     57  54  89 S7        30.18F
AURORA         CLEAR     57  53  89 SW6       30.18S
HASTINGS       CLEAR     58  51  78 S7        30.19F
HEBRON         CLEAR     52  51  95 CALM      30.18F
HOLDREGE       CLEAR     55  50  82 S6        30.17F
KEARNEY        CLEAR     55  52  89 S5        30.18F
$$

NEZ011>018-030>034-042>045-231100-
NORTHEAST NEBRASKA

CITY           SKY/WX    TMP DP  RH WIND       PRES   REMARKS
NORFOLK        CLEAR     53  52  96 CALM      30.15F
ALBION         CLEAR     55  53  93 CALM      30.17F
BLAIR          CLEAR     56  53  92 SW3       30.16S
COLUMBUS       CLEAR     51  51 100 CALM      30.18S
FREMONT        CLEAR     55  54  97 CALM      30.16F
TEKAMAH        CLEAR     53  51  93 S3        30.15F
WAYNE          CLEAR     51  48  91 CALM      30.15F
$$

NEZ050>053-065>068-078-088>093-231100-
SOUTHEAST NEBRASKA

CITY           SKY/WX    TMP DP  RH WIND       PRES   REMARKS
LINCOLN        CLEAR     56  54  93 W3        30.18S
OMAHA EPPLEY   CLEAR     57  53  86 CALM      30.16F
BEATRICE       CLEAR     53  52  97 CALM      30.17S
FALLS CITY     CLEAR     52  51  97 CALM      30.16F
NEBRASKA CITY  CLEAR     57  56  99 W7        30.16F
$$

NEZ044-045-051>053-067-231100-
OMAHA AREA

CITY           SKY/WX    TMP DP  RH WIND       PRES   REMARKS
OMAHA EPPLEY   CLEAR     57  53  86 CALM      30.16F
BLAIR          CLEAR     56  53  92 SW3       30.16S
FREMONT        CLEAR     55  54  97 CALM      30.16F
MILLARD        CLEAR     57  56  96 CALM      30.16S
OFFUTT AFB     CLEAR     54  53  97 CALM      30.16S
WAHOO          FAIR      53  52  97 CALM      30.16F
$$




USA.gov is the U.S. government's official web portal to all federal, state and local government web resources and services.